AEE6218 LGAV-LGRP

Flight info

Callsign AEE6218
Flight time 0h 40m
Altitude 29000
Route KEA UL995 CODIC
Aircraft A320/M-SDE3FGHIRWY/LB1

Departure

Time 2026-05-07 09:48
Airport Athens Eleftherios Venizelos International Airport (LGAV)

Arrival

Time 2026-05-07 10:28
Airport Rhodes International Airport "Diagoras" (LGRP)
Time Latitude Longitude Altitude Speed Heading
2026-05-07 09:22 37.93000 23.94384 302 ft 0 kts 40°
2026-05-07 09:39 37.92996 23.94380 301 ft 2 kts 40°
2026-05-07 09:39 37.92983 23.94366 302 ft 2 kts 43°
2026-05-07 09:39 37.92970 23.94351 301 ft 2 kts 43°
2026-05-07 09:39 37.92958 23.94337 301 ft 2 kts 43°
2026-05-07 09:40 37.92945 23.94322 300 ft 3 kts 64°
2026-05-07 09:40 37.92941 23.94300 301 ft 3 kts 100°
2026-05-07 09:40 37.92945 23.94284 301 ft 0 kts 124°
2026-05-07 09:40 37.92943 23.94286 301 ft 0 kts 124°
2026-05-07 09:42 37.92935 23.94298 302 ft 10 kts 129°
2026-05-07 09:42 37.92852 23.94405 302 ft 19 kts 126°
2026-05-07 09:42 37.92845 23.94513 301 ft 14 kts 47°
2026-05-07 09:42 37.92952 23.94617 302 ft 22 kts 36°
2026-05-07 09:43 37.93083 23.94743 302 ft 25 kts 37°
2026-05-07 09:43 37.93229 23.94881 301 ft 27 kts 36°
2026-05-07 09:43 37.93368 23.95009 299 ft 21 kts 36°
2026-05-07 09:43 37.93491 23.95123 298 ft 23 kts 37°
2026-05-07 09:44 37.93627 23.95254 298 ft 26 kts 37°
2026-05-07 09:44 37.93775 23.95397 297 ft 22 kts 38°
2026-05-07 09:44 37.93902 23.95528 297 ft 25 kts 36°
2026-05-07 09:44 37.94049 23.95655 299 ft 27 kts 35°
2026-05-07 09:45 37.94203 23.95797 297 ft 28 kts 38°
2026-05-07 09:45 37.94356 23.95943 299 ft 24 kts 36°
2026-05-07 09:45 37.94493 23.96074 300 ft 25 kts 37°
2026-05-07 09:45 37.94626 23.96201 300 ft 22 kts 38°
2026-05-07 09:46 37.94727 23.96302 302 ft 13 kts 39°
2026-05-07 09:46 37.94714 23.96340 299 ft 7 kts 180°
2026-05-07 09:46 37.94652 23.96336 299 ft 11 kts 186°
2026-05-07 09:46 37.94554 23.96317 296 ft 17 kts 188°
2026-05-07 09:47 37.94441 23.96306 293 ft 13 kts 212°
2026-05-07 09:47 37.94291 23.96164 286 ft 59 kts 216°
2026-05-07 09:47 37.93769 23.95672 280 ft 124 kts 216°
2026-05-07 09:47 37.92944 23.94887 314 ft 169 kts 216°
2026-05-07 09:48 37.92007 23.93948 808 ft 174 kts 216°
2026-05-07 09:48 37.91023 23.92961 1304 ft 189 kts 216°
2026-05-07 09:48 37.89906 23.91895 1798 ft 213 kts 210°
2026-05-07 09:48 37.88458 23.91194 2362 ft 233 kts 197°
2026-05-07 09:49 37.86884 23.90595 3242 ft 240 kts 195°
2026-05-07 09:49 37.85162 23.90491 3948 ft 257 kts 168°
2026-05-07 09:49 37.83547 23.91511 4899 ft 266 kts 140°
2026-05-07 09:49 37.82253 23.93213 5860 ft 270 kts 134°
2026-05-07 09:50 37.80977 23.94986 6822 ft 275 kts 133°
2026-05-07 09:50 37.79680 23.96800 7690 ft 281 kts 133°
2026-05-07 09:50 37.78351 23.98658 8483 ft 288 kts 133°
2026-05-07 09:50 37.76989 24.00552 9340 ft 293 kts 133°
2026-05-07 09:51 37.75601 24.02472 10181 ft 298 kts 133°
2026-05-07 09:51 37.74156 24.04465 10608 ft 319 kts 133°
2026-05-07 09:51 37.72604 24.06606 10858 ft 342 kts 133°
2026-05-07 09:51 37.70947 24.08894 11113 ft 362 kts 133°
2026-05-07 09:52 37.69229 24.11271 11691 ft 370 kts 133°
2026-05-07 09:52 37.67481 24.13691 12392 ft 376 kts 133°
2026-05-07 09:52 37.65704 24.16142 13048 ft 381 kts 133°
2026-05-07 09:52 37.63926 24.18588 13697 ft 386 kts 133°
2026-05-07 09:53 37.62098 24.21102 14310 ft 391 kts 133°
2026-05-07 09:53 37.60254 24.23636 14909 ft 395 kts 133°
2026-05-07 09:53 37.58389 24.26198 15499 ft 398 kts 134°
2026-05-07 09:53 37.56625 24.28909 16098 ft 403 kts 125°
2026-05-07 09:54 37.55249 24.32005 16710 ft 408 kts 114°
2026-05-07 09:54 37.54284 24.35381 17330 ft 412 kts 108°
2026-05-07 09:54 37.53394 24.38831 17956 ft 416 kts 108°
2026-05-07 09:54 37.52491 24.42310 18560 ft 420 kts 109°
2026-05-07 09:55 37.51575 24.45817 19128 ft 423 kts 109°
2026-05-07 09:55 37.50649 24.49351 19725 ft 427 kts 109°
2026-05-07 09:55 37.49713 24.52912 20323 ft 430 kts 109°
2026-05-07 09:55 37.48775 24.56497 20868 ft 433 kts 108°
2026-05-07 09:56 37.47832 24.60113 21404 ft 436 kts 108°
2026-05-07 09:56 37.46881 24.63755 21910 ft 439 kts 108°
2026-05-07 09:56 37.45921 24.67417 22405 ft 442 kts 108°
2026-05-07 09:56 37.44950 24.71104 22886 ft 445 kts 108°
2026-05-07 09:57 37.43970 24.74817 23348 ft 448 kts 108°
2026-05-07 09:57 37.42984 24.78548 23802 ft 451 kts 108°
2026-05-07 09:57 37.41988 24.82306 24176 ft 454 kts 108°
2026-05-07 09:57 37.40987 24.86084 24553 ft 457 kts 108°
2026-05-07 09:58 37.39977 24.89894 24929 ft 460 kts 109°
2026-05-07 09:58 37.38967 24.93714 25293 ft 463 kts 108°
2026-05-07 09:58 37.37945 24.97564 25648 ft 465 kts 109°
2026-05-07 09:58 37.36915 25.01431 25998 ft 468 kts 109°
2026-05-07 09:59 37.35877 25.05320 26350 ft 470 kts 109°
2026-05-07 09:59 37.34834 25.09227 26712 ft 473 kts 109°
2026-05-07 09:59 37.33787 25.13155 27066 ft 476 kts 109°
2026-05-07 09:59 37.32734 25.17105 27403 ft 478 kts 109°
2026-05-07 10:00 37.31673 25.21078 27740 ft 481 kts 109°
2026-05-07 10:00 37.30602 25.25069 28069 ft 483 kts 109°
2026-05-07 10:00 37.29523 25.29077 28392 ft 486 kts 109°
2026-05-07 10:00 37.28435 25.33108 28715 ft 489 kts 109°
2026-05-07 10:01 37.27335 25.37149 29043 ft 490 kts 110°
2026-05-07 10:01 37.26158 25.41166 29154 ft 489 kts 111°
2026-05-07 10:01 37.24902 25.45125 29167 ft 488 kts 113°
2026-05-07 10:02 37.22268 25.52961 29168 ft 487 kts 114°
2026-05-07 10:02 37.19600 25.60783 29170 ft 488 kts 113°
2026-05-07 10:03 37.16966 25.68616 29168 ft 488 kts 112°
2026-05-07 10:03 37.14353 25.76462 29171 ft 488 kts 112°
2026-05-07 10:04 37.11739 25.84310 29175 ft 488 kts 112°
2026-05-07 10:04 37.09106 25.92134 29174 ft 488 kts 112°
2026-05-07 10:05 37.06479 25.99899 29178 ft 488 kts 112°
2026-05-07 10:05 37.03837 26.07717 29170 ft 488 kts 112°
2026-05-07 10:06 37.01190 26.15538 29172 ft 488 kts 112°
2026-05-07 10:06 36.98538 26.23351 29173 ft 488 kts 112°
2026-05-07 10:07 36.95893 26.31170 29174 ft 488 kts 112°
2026-05-07 10:07 36.93240 26.38985 29169 ft 489 kts 112°
2026-05-07 10:08 36.90577 26.46811 29144 ft 490 kts 112°
2026-05-07 10:08 36.89247 26.50708 28172 ft 484 kts 112°
2026-05-07 10:08 36.87919 26.54606 26063 ft 493 kts 112°
2026-05-07 10:08 36.86564 26.58584 24424 ft 497 kts 112°
2026-05-07 10:09 36.85230 26.62482 23800 ft 476 kts 112°
2026-05-07 10:09 36.83963 26.66161 23592 ft 446 kts 112°
2026-05-07 10:09 36.82761 26.69640 23486 ft 435 kts 112°
2026-05-07 10:09 36.81552 26.73144 23385 ft 444 kts 112°
2026-05-07 10:10 36.80327 26.76698 23284 ft 446 kts 112°
2026-05-07 10:10 36.79278 26.80335 23175 ft 446 kts 103°
2026-05-07 10:10 36.78509 26.84076 23072 ft 445 kts 102°
2026-05-07 10:10 36.77750 26.87767 22973 ft 445 kts 102°
2026-05-07 10:11 36.76986 26.91496 22869 ft 444 kts 102°
2026-05-07 10:11 36.76221 26.95225 22766 ft 443 kts 102°
2026-05-07 10:11 36.75456 26.98946 22661 ft 443 kts 102°
2026-05-07 10:11 36.74693 27.02665 22562 ft 442 kts 102°
2026-05-07 10:12 36.73932 27.06375 22461 ft 442 kts 102°
2026-05-07 10:12 36.73163 27.10110 22143 ft 453 kts 102°
2026-05-07 10:12 36.72368 27.13958 21886 ft 461 kts 102°
2026-05-07 10:12 36.71569 27.17822 21317 ft 460 kts 102°
2026-05-07 10:13 36.70770 27.21669 20501 ft 457 kts 103°
2026-05-07 10:13 36.69977 27.25480 19736 ft 453 kts 102°
2026-05-07 10:13 36.69188 27.29271 18972 ft 450 kts 103°
2026-05-07 10:13 36.68403 27.33021 18227 ft 447 kts 103°
2026-05-07 10:14 36.67625 27.36749 17513 ft 442 kts 102°
2026-05-07 10:14 36.66853 27.40444 16850 ft 437 kts 102°
2026-05-07 10:14 36.66347 27.42860 16427 ft 434 kts 102°
2026-05-07 10:14 36.65338 27.47658 15558 ft 430 kts 102°
2026-05-07 10:15 36.64581 27.51252 14880 ft 428 kts 102°
2026-05-07 10:15 36.63828 27.54829 14196 ft 426 kts 102°
2026-05-07 10:15 36.63077 27.58393 13425 ft 424 kts 102°
2026-05-07 10:15 36.62330 27.61927 12697 ft 420 kts 102°
2026-05-07 10:16 36.61839 27.64243 12314 ft 415 kts 102°
2026-05-07 10:16 36.61106 27.67708 11587 ft 412 kts 102°
2026-05-07 10:16 36.60388 27.71099 11257 ft 397 kts 102°
2026-05-07 10:16 36.59703 27.74328 11129 ft 375 kts 102°
2026-05-07 10:17 36.59060 27.77331 10977 ft 344 kts 102°
2026-05-07 10:17 36.58465 27.80105 10854 ft 320 kts 102°
2026-05-07 10:17 36.57904 27.82710 10503 ft 307 kts 102°
2026-05-07 10:17 36.57363 27.85235 10230 ft 299 kts 102°
2026-05-07 10:18 36.56827 27.87742 10043 ft 297 kts 102°
2026-05-07 10:18 36.56298 27.90226 9911 ft 297 kts 102°
2026-05-07 10:18 36.55770 27.92707 9766 ft 297 kts 102°
2026-05-07 10:18 36.55239 27.95203 9323 ft 299 kts 102°
2026-05-07 10:19 36.54709 27.97687 9006 ft 296 kts 102°
2026-05-07 10:19 36.54182 28.00157 8437 ft 293 kts 102°
2026-05-07 10:19 36.53666 28.02544 8184 ft 276 kts 102°
2026-05-07 10:19 36.53178 28.04790 7891 ft 264 kts 102°
2026-05-07 10:20 36.52706 28.06973 7436 ft 259 kts 102°
2026-05-07 10:20 36.52245 28.09111 7075 ft 252 kts 102°
2026-05-07 10:20 36.51805 28.11160 6663 ft 247 kts 102°
2026-05-07 10:20 36.51359 28.13231 6217 ft 243 kts 102°
2026-05-07 10:21 36.50929 28.15221 5764 ft 239 kts 102°
2026-05-07 10:21 36.50510 28.17149 5581 ft 221 kts 102°
2026-05-07 10:21 36.50111 28.18983 5087 ft 216 kts 102°
2026-05-07 10:21 36.49732 28.20734 4619 ft 209 kts 103°
2026-05-07 10:22 36.49352 28.22481 4047 ft 205 kts 103°
2026-05-07 10:22 36.48979 28.24187 3462 ft 204 kts 103°
2026-05-07 10:22 36.48610 28.25882 2929 ft 203 kts 103°
2026-05-07 10:22 36.48247 28.27552 2774 ft 200 kts 103°
2026-05-07 10:23 36.47876 28.29251 2948 ft 206 kts 103°
2026-05-07 10:23 36.47501 28.30976 2984 ft 207 kts 103°
2026-05-07 10:23 36.46981 28.32640 2971 ft 209 kts 126°
2026-05-07 10:23 36.45819 28.33672 2994 ft 210 kts 166°
2026-05-07 10:24 36.44392 28.33579 2993 ft 209 kts 205°
2026-05-07 10:24 36.43326 28.32420 2993 ft 206 kts 244°
2026-05-07 10:24 36.43043 28.30729 2989 ft 201 kts 280°
2026-05-07 10:24 36.43409 28.29055 2996 ft 202 kts 288°
2026-05-07 10:25 36.43794 28.27385 3000 ft 199 kts 287°
2026-05-07 10:25 36.44155 28.25769 3002 ft 191 kts 287°
2026-05-07 10:25 36.44506 28.24189 2982 ft 188 kts 287°
2026-05-07 10:25 36.44636 28.22592 2991 ft 189 kts 263°
2026-05-07 10:26 36.44232 28.21039 2977 ft 188 kts 250°
2026-05-07 10:26 36.43733 28.19563 2706 ft 183 kts 250°
2026-05-07 10:26 36.43269 28.18102 2158 ft 180 kts 251°
2026-05-07 10:26 36.42847 28.16719 1727 ft 163 kts 251°
2026-05-07 10:27 36.42474 28.15441 1304 ft 152 kts 253°
2026-05-07 10:27 36.42153 28.14226 1058 ft 144 kts 254°
2026-05-07 10:27 36.41821 28.13061 773 ft 145 kts 251°
2026-05-07 10:27 36.41483 28.11873 390 ft 145 kts 253°
2026-05-07 10:28 36.41147 28.10727 114 ft 136 kts 252°
2026-05-07 10:28 36.40858 28.09719 26 ft 103 kts 250°
2026-05-07 10:28 36.40720 28.09233 30 ft 16 kts 251°